SKW3007 KSAN-KSMF

Flight info

Callsign SKW3007
Flight time N/A
Altitude 34000
Route PADRZ2 EHF NURAY SUUTR4
Aircraft E75L/M-SDE3GILORVW/S

Departure

Time 2026-05-05 04:22
Airport San Diego International Airport (KSAN)

Arrival

Time N/A
Airport Sacramento International Airport (KSMF)
Time Latitude Longitude Altitude Speed Heading
2026-05-05 03:52 32.73420 -117.20185 20 ft 0 kts 169°
2026-05-05 04:07 32.73439 -117.20191 22 ft 4 kts 141°
2026-05-05 04:08 32.73450 -117.20215 21 ft 4 kts 83°
2026-05-05 04:08 32.73442 -117.20244 22 ft 4 kts 57°
2026-05-05 04:08 32.73425 -117.20267 21 ft 4 kts 27°
2026-05-05 04:08 32.73418 -117.20271 21 ft 0 kts 15°
2026-05-05 04:16 32.73424 -117.20269 22 ft 2 kts 16°
2026-05-05 04:16 32.73449 -117.20260 24 ft 5 kts 16°
2026-05-05 04:16 32.73498 -117.20243 20 ft 9 kts 16°
2026-05-05 04:16 32.73547 -117.20196 20 ft 11 kts 82°
2026-05-05 04:17 32.73526 -117.20094 21 ft 15 kts 106°
2026-05-05 04:17 32.73494 -117.19965 21 ft 17 kts 107°
2026-05-05 04:17 32.73459 -117.19820 22 ft 19 kts 105°
2026-05-05 04:17 32.73420 -117.19661 20 ft 21 kts 106°
2026-05-05 04:18 32.73379 -117.19487 21 ft 23 kts 106°
2026-05-05 04:18 32.73333 -117.19302 20 ft 24 kts 106°
2026-05-05 04:18 32.73285 -117.19103 22 ft 26 kts 107°
2026-05-05 04:18 32.73235 -117.18892 20 ft 27 kts 106°
2026-05-05 04:19 32.73181 -117.18671 22 ft 28 kts 105°
2026-05-05 04:19 32.73125 -117.18441 21 ft 30 kts 106°
2026-05-05 04:19 32.73072 -117.18223 22 ft 24 kts 106°
2026-05-05 04:19 32.73027 -117.18034 20 ft 19 kts 105°
2026-05-05 04:20 32.72990 -117.17883 20 ft 20 kts 107°
2026-05-05 04:20 32.72949 -117.17722 20 ft 11 kts 94°
2026-05-05 04:20 32.72950 -117.17707 20 ft 4 kts 83°
2026-05-05 04:20 32.72965 -117.17647 20 ft 10 kts 70°
2026-05-05 04:21 32.73021 -117.17614 20 ft 12 kts 323°
2026-05-05 04:21 32.73053 -117.17714 20 ft 22 kts 286°
2026-05-05 04:21 32.73160 -117.18157 22 ft 85 kts 285°
2026-05-05 04:21 32.73369 -117.19047 21 ft 135 kts 284°
2026-05-05 04:22 32.73654 -117.20200 418 ft 150 kts 288°
2026-05-05 04:22 32.74097 -117.21434 1047 ft 164 kts 296°
2026-05-05 04:22 32.74670 -117.22614 1824 ft 174 kts 299°
2026-05-05 04:22 32.75368 -117.23879 2399 ft 187 kts 302°
2026-05-05 04:23 32.76107 -117.25162 3000 ft 198 kts 302°
2026-05-05 04:23 32.76906 -117.26547 3541 ft 206 kts 302°
2026-05-05 04:23 32.77719 -117.27964 4307 ft 207 kts 302°
2026-05-05 04:23 32.78543 -117.29402 5059 ft 219 kts 302°
2026-05-05 04:24 32.79430 -117.30971 5593 ft 238 kts 303°
2026-05-05 04:24 32.80450 -117.32607 6178 ft 254 kts 305°
2026-05-05 04:24 32.81549 -117.34309 6834 ft 263 kts 305°
2026-05-05 04:25 32.83811 -117.37804 8337 ft 271 kts 304°
2026-05-05 04:25 32.84966 -117.39597 9097 ft 274 kts 304°
2026-05-05 04:25 32.86135 -117.41410 9836 ft 277 kts 303°
2026-05-05 04:25 32.87327 -117.43267 10316 ft 289 kts 303°
2026-05-05 04:26 32.88578 -117.45213 10720 ft 303 kts 303°
2026-05-05 04:26 32.89866 -117.47208 11355 ft 307 kts 303°
2026-05-05 04:26 32.91158 -117.49213 12065 ft 310 kts 303°
2026-05-05 04:26 32.92463 -117.51245 12814 ft 313 kts 303°
2026-05-05 04:27 32.93807 -117.53339 13609 ft 317 kts 302°
2026-05-05 04:27 32.95150 -117.55432 14361 ft 320 kts 302°
2026-05-05 04:27 32.96509 -117.57548 15123 ft 323 kts 302°
2026-05-05 04:27 32.97881 -117.59690 15877 ft 326 kts 302°
2026-05-05 04:28 32.99266 -117.61852 16614 ft 329 kts 301°
2026-05-05 04:28 33.00642 -117.64002 17355 ft 333 kts 301°
2026-05-05 04:28 33.02049 -117.66201 18113 ft 336 kts 300°
2026-05-05 04:28 33.03471 -117.68424 18806 ft 338 kts 300°
2026-05-05 04:29 33.04965 -117.70614 19500 ft 344 kts 303°
2026-05-05 04:29 33.06566 -117.72759 20211 ft 348 kts 304°
2026-05-05 04:29 33.08285 -117.74832 20922 ft 356 kts 310°
2026-05-05 04:29 33.10162 -117.76788 21617 ft 361 kts 310°
2026-05-05 04:30 33.12075 -117.78750 22286 ft 365 kts 310°
2026-05-05 04:30 33.14012 -117.80720 22944 ft 368 kts 310°
2026-05-05 04:30 33.15942 -117.82685 23569 ft 371 kts 310°
2026-05-05 04:30 33.17892 -117.84716 24101 ft 375 kts 310°
2026-05-05 04:31 33.19917 -117.86702 24642 ft 378 kts 310°
2026-05-05 04:31 33.21961 -117.88700 25187 ft 381 kts 310°
2026-05-05 04:31 33.24018 -117.90706 25736 ft 383 kts 310°
2026-05-05 04:31 33.26087 -117.92725 26268 ft 386 kts 309°
2026-05-05 04:32 33.28175 -117.94763 26804 ft 388 kts 309°
2026-05-05 04:32 33.30261 -117.96800 27300 ft 391 kts 308°
2026-05-05 04:32 33.32376 -117.98868 27807 ft 393 kts 308°
2026-05-05 04:32 33.34497 -118.00942 28305 ft 394 kts 308°
2026-05-05 04:33 33.36625 -118.03026 28780 ft 397 kts 308°
2026-05-05 04:33 33.38734 -118.05091 29240 ft 399 kts 307°
2026-05-05 04:33 33.40890 -118.07204 29686 ft 401 kts 307°
2026-05-05 04:33 33.43054 -118.09330 29902 ft 407 kts 307°
2026-05-05 04:34 33.45255 -118.11487 30268 ft 409 kts 307°
2026-05-05 04:34 33.47456 -118.13645 30678 ft 409 kts 307°
2026-05-05 04:34 33.49623 -118.15775 31077 ft 409 kts 307°
2026-05-05 04:34 33.51848 -118.17963 31496 ft 408 kts 307°
2026-05-05 04:35 33.54036 -118.20116 31902 ft 407 kts 306°
2026-05-05 04:35 33.56306 -118.22135 32275 ft 417 kts 311°
2026-05-05 04:35 33.58756 -118.24030 32643 ft 422 kts 314°
2026-05-05 04:35 33.61405 -118.25671 33007 ft 433 kts 320°
2026-05-05 04:36 33.64135 -118.27212 33355 ft 434 kts 320°
2026-05-05 04:36 33.66871 -118.28727 33703 ft 434 kts 320°
2026-05-05 04:36 33.69616 -118.30239 33937 ft 429 kts 320°
2026-05-05 04:37 33.75005 -118.33241 34040 ft 439 kts 322°
2026-05-05 04:37 33.80681 -118.36115 34051 ft 443 kts 322°
2026-05-05 04:38 33.86348 -118.38975 34067 ft 442 kts 322°
2026-05-05 04:38 33.92014 -118.41836 34049 ft 441 kts 322°
2026-05-05 04:39 33.97705 -118.44632 34064 ft 450 kts 327°
2026-05-05 04:39 34.03845 -118.46475 34049 ft 470 kts 338°
2026-05-05 04:40 34.10330 -118.47534 34066 ft 472 kts 339°
2026-05-05 04:40 34.16852 -118.48535 34036 ft 470 kts 339°
2026-05-05 04:41 34.23307 -118.49528 34049 ft 468 kts 338°
2026-05-05 04:41 34.29765 -118.50522 34040 ft 466 kts 338°
2026-05-05 04:42 34.36119 -118.51503 34037 ft 464 kts 338°
2026-05-05 04:42 34.42517 -118.52491 34030 ft 462 kts 338°
2026-05-05 04:43 34.48880 -118.53476 34029 ft 460 kts 338°
2026-05-05 04:43 34.55234 -118.54460 34018 ft 459 kts 338°
2026-05-05 04:44 34.61506 -118.55434 34014 ft 457 kts 337°
2026-05-05 04:44 34.67815 -118.56415 34027 ft 457 kts 337°
2026-05-05 04:45 34.74107 -118.57395 34012 ft 455 kts 337°
2026-05-05 04:45 34.80392 -118.58375 34005 ft 455 kts 337°
2026-05-05 04:46 34.86613 -118.59348 34025 ft 454 kts 337°
2026-05-05 04:46 34.92877 -118.60327 34017 ft 453 kts 337°
2026-05-05 04:47 34.99062 -118.61434 34024 ft 437 kts 330°
2026-05-05 04:47 35.01873 -118.62573 34021 ft 417 kts 320°
2026-05-05 04:47 35.04360 -118.64223 34054 ft 395 kts 310°
2026-05-05 04:47 35.06450 -118.66263 34066 ft 379 kts 302°
2026-05-05 04:48 35.08358 -118.68450 34060 ft 376 kts 301°
2026-05-05 04:48 35.12233 -118.72749 34049 ft 383 kts 305°
2026-05-05 04:49 35.16312 -118.76913 34030 ft 383 kts 305°
2026-05-05 04:49 35.20407 -118.81072 34011 ft 383 kts 305°
2026-05-05 04:50 35.24482 -118.85218 33980 ft 381 kts 305°
2026-05-05 04:50 35.28566 -118.89378 33986 ft 382 kts 305°
2026-05-05 04:51 35.32601 -118.93497 33999 ft 381 kts 305°
2026-05-05 04:51 35.36676 -118.97659 33986 ft 381 kts 305°
2026-05-05 04:52 35.40725 -119.01804 33998 ft 381 kts 305°
2026-05-05 04:52 35.44795 -119.05973 33991 ft 380 kts 305°
2026-05-05 04:52 35.46927 -119.07897 33993 ft 393 kts 312°
2026-05-05 04:53 35.49284 -119.09646 34003 ft 399 kts 314°
2026-05-05 04:53 35.54276 -119.12819 33992 ft 411 kts 320°
2026-05-05 04:54 35.59509 -119.15663 34011 ft 413 kts 321°
2026-05-05 04:54 35.64779 -119.18492 34006 ft 413 kts 321°
2026-05-05 04:55 35.70010 -119.21306 34019 ft 414 kts 322°
2026-05-05 04:55 35.75293 -119.24152 34002 ft 415 kts 322°
2026-05-05 04:56 35.80579 -119.27006 34021 ft 415 kts 322°
2026-05-05 04:56 35.85880 -119.29870 34006 ft 417 kts 322°
2026-05-05 04:57 35.91183 -119.32741 34010 ft 417 kts 322°
2026-05-05 04:57 35.96469 -119.35606 34003 ft 418 kts 322°
2026-05-05 04:58 36.01797 -119.38499 34011 ft 419 kts 322°
2026-05-05 04:58 36.07134 -119.41400 34002 ft 419 kts 323°
2026-05-05 04:59 36.12434 -119.44286 34024 ft 419 kts 323°
2026-05-05 04:59 36.17768 -119.47195 34021 ft 419 kts 323°
2026-05-05 05:00 36.23096 -119.50105 34032 ft 419 kts 323°
2026-05-05 05:00 36.28432 -119.53024 34016 ft 419 kts 323°
2026-05-05 05:01 36.33733 -119.55928 34034 ft 419 kts 322°
2026-05-05 05:01 36.39073 -119.58857 34017 ft 419 kts 322°
2026-05-05 05:02 36.44402 -119.61811 34038 ft 422 kts 323°
2026-05-05 05:02 36.48855 -119.64236 34021 ft 420 kts 322°
2026-05-05 05:03 36.55071 -119.67655 34020 ft 421 kts 322°
2026-05-05 05:03 36.60296 -119.70800 34036 ft 410 kts 316°
2026-05-05 05:04 36.65138 -119.74519 34031 ft 408 kts 314°
2026-05-05 05:04 36.69127 -119.77666 34045 ft 409 kts 314°
2026-05-05 05:05 36.73932 -119.81465 34031 ft 410 kts 314°
2026-05-05 05:05 36.78752 -119.85279 34039 ft 410 kts 314°
2026-05-05 05:06 36.83567 -119.89095 34035 ft 411 kts 315°
2026-05-05 05:06 36.88376 -119.92911 34032 ft 412 kts 315°
2026-05-05 05:07 36.93222 -119.96762 34031 ft 413 kts 315°
2026-05-05 05:07 36.98069 -120.00619 34041 ft 413 kts 315°